Topeka, KS

4:03 PM CDT on March 26, 2017 (GMT -0500)
Billard Municipal

Weather History for KTOP - August, 2012

Change the Weather History Date:

Monday, August 27, 2012

  Actual Average Record
Temperature  
Mean Temperature 79 °F 76 °F  
Max Temperature 93 °F 87 °F 108 °F (2000)
Min Temperature 64 °F 64 °F 50 °F (1967)
Degree Days  
Heating Degree Days 0 0  
Month to date heating degree days 0 0  
Since 1 June heating degree days 9 8  
Since 1 July heating degree days 0 0  
Cooling Degree Days 14 11  
Month to date cooling degree days 315 346  
Year to date cooling degree days 1737 1188  
Since 1 June cooling degree days 1419 1062  
Growing Degree Days 28 (Base 50)    
Moisture  
Dew Point 64 °F    
Average Humidity 68    
Maximum Humidity 100    
Minimum Humidity 36    
Precipitation  
Precipitation 0.00 in 0.14 in 1.88 in (1989)
Month to date precipitation 3.37 3.71  
Year to date precipitation 18.65 26.04  
Snow  
Snow 0.00 in 0.00 in T in (1919)
Month to date snowfall 0.0 0.0  
Year to date snowfall 3.0 11.3  
Since 1 July snowfall 0.0 0.0  
Snow Depth 0.00 in    
Sea Level Pressure  
Sea Level Pressure 30.09 in    
Wind  
Wind Speed 2 mph (ENE)    
Max Wind Speed 13 mph    
Max Gust Speed 21 mph    
Visibility 6 miles    
Events Fog    
T = Trace of Precipitation, MM = Missing Value Source: NWS Daily Summary

Daily Weather History Graph

Daily Weather History Graph

Search for Another Location

Airport or City:

Trip Planner

Search our weather history database for the weather conditions in past years. The results will help you decide how hot, cold, wet, or windy it might be!

Date:

Astronomy

Aug. 27, 2012 Rise Set
Actual Time 6:47 AM CDT 7:59 PM CDT
Civil Twilight 6:19 AM CDT 8:27 PM CDT
Nautical Twilight 5:46 AM CDT 9:00 PM CDT
Astronomical Twilight 5:11 AM CDT 9:34 PM CDT
Moon 5:19 PM CDT (8/27) 2:33 AM CDT (8/27)
Length of Visible Light 14h 07m
Length of Day
13h 12m
Waxing Gibbous, 83% of the Moon is Illuminated
Aug 27
Waxing Gibbous
Aug 31
Full
Sep 8
Last Quarter
Sep 15
New
Sep 22
First Quarter

Hourly Weather History & Observations

Time (CDT) Temp. Heat Index Dew Point Humidity Pressure Visibility Wind Dir Wind Speed Gust Speed Precip Events Conditions
12:53 AM 70.0 °F - 66.9 °F 90% 30.05 in 8.0 mi Calm Calm - N/A   Clear
1:53 AM 66.0 °F - 64.0 °F 93% 30.04 in 1.8 mi Calm Calm - N/A   Clear
1:58 AM 66.2 °F - 64.4 °F 94% 30.07 in 0.5 mi Calm Calm - N/A Fog Fog
2:06 AM 66.2 °F - 64.4 °F 94% 30.07 in 1.2 mi Calm Calm - N/A   Clear
2:09 AM 66.2 °F - 64.4 °F 94% 30.07 in 3.0 mi Calm Calm - N/A   Clear
2:29 AM 66.2 °F - 64.4 °F 94% 30.07 in 1.8 mi Calm Calm - N/A   Clear
2:41 AM 66.2 °F - 64.4 °F 94% 30.08 in 0.8 mi Calm Calm - N/A   Clear
2:45 AM 66.2 °F - 64.4 °F 94% 30.07 in 2.0 mi Calm Calm - N/A   Clear
2:53 AM 66.0 °F - 64.0 °F 93% 30.06 in 4.0 mi Calm Calm - N/A   Clear
3:53 AM 66.0 °F - 64.0 °F 93% 30.06 in 5.0 mi Calm Calm - N/A   Clear
4:26 AM 66.2 °F - 64.4 °F 94% 30.08 in 1.5 mi Calm Calm - N/A   Clear
4:28 AM 66.2 °F - 64.4 °F 94% 30.08 in 0.8 mi Calm Calm - N/A   Mist
4:39 AM 64.4 °F - 64.4 °F 100% 30.08 in 0.5 mi Calm Calm - N/A Fog Fog
4:48 AM 64.4 °F - 64.4 °F 100% 30.09 in 1.0 mi Calm Calm - N/A   Mist
4:53 AM 64.9 °F - 64.0 °F 97% 30.06 in 0.8 mi Calm Calm - N/A   Mist
5:00 AM 64.4 °F - 62.6 °F 94% 30.09 in 0.2 mi Calm Calm - N/A Fog Fog
5:19 AM 64.4 °F - 62.6 °F 94% 30.10 in 1.0 mi Calm Calm - N/A   Mist
5:25 AM 64.4 °F - 62.6 °F 94% 30.10 in 2.0 mi Calm Calm - N/A   Partly Cloudy
5:32 AM 64.4 °F - 62.6 °F 94% 30.10 in 1.0 mi Calm Calm - N/A   Clear
5:46 AM 66.2 °F - 64.4 °F 94% 30.11 in 3.0 mi Calm Calm - N/A   Partly Cloudy
5:53 AM 66.0 °F - 64.0 °F 93% 30.09 in 6.0 mi Calm Calm - N/A   Scattered Clouds
6:53 AM 64.9 °F - 63.0 °F 93% 30.12 in 9.0 mi Calm Calm - N/A   Clear
7:03 AM 64.4 °F - 62.6 °F 94% 30.14 in 1.5 mi Calm Calm - N/A   Clear
7:09 AM 64.4 °F - 62.6 °F 94% 30.14 in 0.5 mi Calm Calm - N/A Fog Fog
7:23 AM 64.4 °F - 62.6 °F 94% 30.14 in 1.0 mi Calm Calm - N/A   Clear
7:26 AM 64.4 °F - 62.6 °F 94% 30.14 in 7.0 mi Calm Calm - N/A   Clear
7:53 AM 66.9 °F - 64.9 °F 93% 30.13 in 9.0 mi Calm Calm - N/A   Clear
8:53 AM 73.0 °F - 68.0 °F 84% 30.14 in 10.0 mi Calm Calm - N/A   Clear
9:53 AM 78.1 °F - 70.0 °F 76% 30.15 in 10.0 mi ENE 4.6 mph - N/A   Clear
10:53 AM 82.9 °F 86.5 °F 69.1 °F 63% 30.16 in 10.0 mi East 5.8 mph - N/A   Clear
11:53 AM 84.9 °F 87.6 °F 66.9 °F 55% 30.15 in 10.0 mi East 5.8 mph - N/A   Clear
12:53 PM 87.1 °F 89.2 °F 66.0 °F 49% 30.13 in 10.0 mi ENE 9.2 mph - N/A   Clear
1:53 PM 89.1 °F 91.0 °F 64.9 °F 45% 30.12 in 10.0 mi Calm Calm - N/A   Clear
2:53 PM 90.0 °F 90.6 °F 63.0 °F 40% 30.10 in 10.0 mi NE 6.9 mph - N/A   Clear
3:53 PM 91.9 °F 93.3 °F 64.0 °F 39% 30.08 in 10.0 mi East 8.1 mph 20.7 mph N/A   Clear
4:53 PM 91.9 °F 91.8 °F 61.0 °F 35% 30.06 in 10.0 mi Variable 3.5 mph - N/A   Clear
5:53 PM 91.9 °F 91.5 °F 60.1 °F 34% 30.05 in 10.0 mi ENE 3.5 mph - N/A   Clear
6:53 PM 89.1 °F 89.3 °F 62.1 °F 40% 30.05 in 10.0 mi NE 4.6 mph - N/A   Clear
7:53 PM 81.0 °F 82.7 °F 64.9 °F 58% 30.05 in 10.0 mi North 3.5 mph - N/A   Clear
8:53 PM 77.0 °F - 64.0 °F 64% 30.07 in 10.0 mi Calm Calm - N/A   Clear
9:53 PM 75.0 °F - 66.0 °F 73% 30.08 in 10.0 mi Calm Calm - N/A   Clear
10:53 PM 71.1 °F - 64.9 °F 81% 30.09 in 10.0 mi Calm Calm - N/A   Clear
11:53 PM 69.1 °F - 64.9 °F 87% 30.10 in 10.0 mi Calm Calm - N/A   Clear